This demonstration page uses our WeatherBlox Daily Observations layout. Learn more.

Left ArrowRight Arrow

44.8408, -93.29828

Hourly Observations for October 24, 2021

Temp ( °F °C ) Dew Point ( °F °C ) Humidity (%) Winds ( mph kmh ) Pressure ( in mb ) Visibility ( mi km ) Precip ( " mm )
12:53 am 00:53 Cloudy 41 5 32 undefined 70 70 E 5 7 30.04 1017 10 16 N/A
1:53 am 01:53 Cloudy 41 5 31 -0.6 67 67 E 3 6 30.04 1017 10 16 N/A
2:53 am 02:53 Cloudy 40 4.4 31 -0.6 70 70 ENE 8 13 30.00 1016 10 16 N/A
3:53 am 03:53 Cloudy 40 4.4 31 -0.6 70 70 E 5 7 29.98 1015 10 16 N/A
4:53 am 04:53 Cloudy 40 4.4 31 -0.6 70 70 E 7 11 29.97 1015 10 16 N/A
5:53 am 05:53 Cloudy 40 4.4 30 -1.1 68 68 ENE 6 9 29.99 1016 10 16 N/A
6:53 am 06:53 Mostly Cloudy 40 4.4 30 -1.1 68 68 ENE 8 13 30.00 1016 10 16 N/A
7:53 am 07:53 Mostly Cloudy 39 3.9 30 -1.1 70 70 ENE 7 11 30.01 1016 10 16 N/A
8:53 am 08:53 Mostly Cloudy 40 4.4 30 -1.1 68 68 E 7 11 30.02 1017 10 16 N/A
9:53 am 09:53 Mostly Cloudy 43 6.1 31 -0.6 63 63 E 9 15 30.03 1017 10 16 N/A
10:53 am 10:53 Cloudy 45 7.2 31 -0.6 58 58 E 13 20 30.02 1017 10 16 N/A
11:53 am 11:53 Cloudy 47 8.3 31 -0.6 54 54 E 13 20 30.02 1017 10 16 N/A
12:53 pm 12:53 Cloudy 48 8.9 31 -0.6 52 52 E 17 28 29.99 1016 10 16 N/A
1:53 pm 13:53 Cloudy 48 8.9 30 -1.1 50 50 E 15 24 29.97 1015 10 16 N/A
2:53 pm 14:53 Cloudy 49 9.4 30 -1.1 48 48 E 17 28 29.94 1014 10 16 N/A
3:53 pm 15:53 Cloudy 49 9.4 30 -1.1 48 48 ENE 16 26 29.93 1014 10 16 N/A
4:53 pm 16:53 Cloudy 49 9.4 31 -0.6 50 50 ENE 12 19 29.95 1014 10 16 N/A
5:53 pm 17:53 Cloudy 48 8.9 30 -1.1 50 50 ENE 12 19 29.97 1015 10 16 N/A
6:53 pm 18:53 Cloudy 48 8.9 31 -0.6 52 52 NE 9 15 29.98 1015 10 16 N/A
7:53 pm 19:53 Cloudy 47 8.3 32 undefined 56 56 NE 10 17 29.99 1016 10 16 N/A
8:53 pm 20:53 Cloudy 45 7.2 32 undefined 61 61 NE 12 19 29.99 1016 10 16 N/A
9:53 pm 21:53 Mostly Cloudy 45 7.2 32 undefined 61 61 NE 13 20 30.01 1016 10 16 N/A
10:53 pm 22:53 Mostly Cloudy 44 6.7 31 -0.6 60 60 NE 13 20 30.04 1017 10 16 N/A
11:53 pm 23:53 Mostly Cloudy 42 5.6 33 0.6 71 71 NNE 10 17 30.06 1018 10 16 N/A

Powered by AerisWeather